FENGYUN 1C DEB, 31829

Orbit data source: Space-Track

FENGYUN 1C DEB, 31829 is space debris in SSO originally from a launch on Mon, 10 May 1999 UTC launched from the Taiyaun Space Center, China (TSC). Fengyun 1C debris stems from the Chinese weather satellite Fengyun-1C, which was intentionally destroyed by a Chinese anti-satellite missile in 2007. This event dramatically increased the amount of space debris, with thousands of trackable fragments posing hazards to satellites and human spaceflight. The Fengyun 1C debris cloud has become a focal point in discussions about space sustainability and the need for international regulations to prevent the creation of new debris.

Loading next visibility...
Identifier
31829, 1999-025CHT
Orbit
SSO
Country
Flag of CNCN / PRC
Related business
Manufacturer
Unknown
Mission
Spacecraft
Bus & Motor
Unknown
Mass
Unknown
Launch date (UTC)
1999-05-10 (26 years ago)
Launch vehicle
Unknown
Launch site
Taiyaun Space Center, China (TSC)
Object type
Payload
Rocket body
Debris
Shape & HBR
Unknown shape, 0.1 m
Radar Cross Section
Small (<0.1 m²)

Expand to show TLE details & history
Last TLE update: 2 days ago

TLE from 2 days ago
0 FENGYUN 1C DEB
1 31829U 99025CHT 25300.95900416  .00000638  00000-0  50493-3 0  9993
2 31829  98.8359 113.1441 0168388 289.4769 225.5136 13.88599359935125
Epoch: 2025-10-27T23:00Z
TLE epoch observation values (Epoch: 2025-10-27T23:00:57.959Z)
Latitude
26.06242°
Longitude
-84.31301°
Altitude
1,023.995 km
Speed
7.298 km/s
True Right ascension
19h 49m 55s
True Declination
25° 55' 55"
Sunlit
Object was in daylight at epoch
Visualization orbit readout
Latitude
Unknown
Longitude
Unknown
Altitude
Unknown
Speed
Unknown
Apparent Right ascension
Unknown
Apparent Declination
Unknown
Sunlit
N/A
Visualization observer readout
Local Sidereal Time
23:20:06
Azimuth
Unknown
Elevation
Unknown
Doppler factor
Unknown
Orbital elements
Apogee altitude
1,053.822 km
Perigee altitude
807.676 km
Semi-major axis
7,308.886 km
Eccentricity
0.01684
Inclination
98.8359°
RAAN
113.1441°
Arg. of periapsis
289.4769°
True anomaly
224.15715°
Mean anomaly
225.5136°
Eccentric anomaly
224.83338°
Mean motion
3.47349 °/min
Orbital period
103.64 mins
BSTAR
0.00050493
Loading maneuver chart data...
Computing Atmospheric mass density...

Documentation

Showing up to 5 results
|